This demonstration page uses our WeatherBlox Daily Observations layout. Learn more.

Left ArrowRight Arrow

Hourly Observations for May 14, 2022

Temp ( °F °C ) Dew Point ( °F °C ) Humidity (%) Winds ( mph kmh ) Pressure ( in mb ) Visibility ( mi km ) Precip ( " mm )
12:15 am 00:15 undefined 69 20.5 58 14.2 67 67 WSW 3 6 29.96 1015 10 16 0.00 0.00
12:35 am 00:35 undefined 66 19.1 58 14.5 75 75 Calm 29.97 1015 10 16 0.00 0.00
12:55 am 00:55 undefined 66 18.7 58 14.5 77 77 Calm 29.97 1015 10 16 0.00 0.00
1:15 am 01:15 undefined 65 18.2 58 14.7 80 80 Calm 29.97 1015 10 16 0.00 0.00
1:35 am 01:35 undefined 64 17.5 59 15.1 86 86 Calm 29.96 1015 10 16 0.00 0.00
1:55 am 01:55 undefined 62 16.6 58 14.5 88 88 Calm 29.97 1015 10 16 0.00 0.00
2:15 am 02:15 undefined 62 16.9 58 14.6 86 86 Calm 29.96 1014 10 16 0.00 0.00
2:35 am 02:35 undefined 63 17 59 14.8 87 87 Calm 29.96 1014 10 16 0.00 0.00
2:55 am 02:55 undefined 61 16.1 58 14.7 91 91 Calm 29.95 1014 10 16 0.00 0.00
3:15 am 03:15 undefined 61 16.1 58 14.6 91 91 Calm 29.94 1014 10 16 0.00 0.00
3:35 am 03:35 undefined 61 16.1 58 14.4 90 90 Calm 29.94 1014 10 16 0.00 0.00
3:55 am 03:55 undefined 60 15.5 58 14.5 94 94 Calm 29.94 1014 10 16 0.00 0.00
4:15 am 04:15 undefined 61 16 58 14.7 92 92 Calm 29.94 1014 10 16 0.00 0.00
4:35 am 04:35 undefined 60 15.6 58 14.5 93 93 Calm 29.94 1014 10 16 0.00 0.00
4:55 am 04:55 undefined 59 15.1 58 14.2 94 94 Calm 29.94 1014 10 16 0.00 0.00
5:15 am 05:15 undefined 60 15.4 58 14.3 93 93 Calm 29.94 1014 10 16 0.00 0.00
5:35 am 05:35 undefined 60 15.5 58 14.4 93 93 Calm 29.95 1014 10 16 0.00 0.00
5:55 am 05:55 undefined 60 15.6 58 14.2 91 91 Calm 29.94 1014 10 16 0.00 0.00
6:15 am 06:15 undefined 59 14.8 57 14.1 96 96 Calm 29.94 1014 10 16 0.00 0.00
6:35 am 06:35 undefined 60 15.3 58 14.3 94 94 Calm 29.94 1014 10 16 0.00 0.00
6:55 am 06:55 undefined 59 15.1 57 14.1 94 94 Calm 29.94 1014 10 16 0.00 0.00
7:15 am 07:15 undefined 59 15.2 57 14.1 93 93 Calm 29.94 1014 10 16 0.00 0.00
7:35 am 07:35 undefined 61 16.3 60 15.3 94 94 Calm 29.95 1014 10 16 0.00 0.00
7:55 am 07:55 undefined 64 17.8 60 15.8 88 88 Calm 29.94 1014 10 16 0.00 0.00
8:15 am 08:15 undefined 66 19 61 16 83 83 Calm 29.94 1014 10 16 0.00 0.00
8:35 am 08:35 undefined 68 20.2 61 15.9 76 76 SE 6 9 29.94 1014 10 16 0.00 0.00
8:55 am 08:55 undefined 71 21.4 60 15.7 70 70 SSE 5 7 29.93 1014 10 16 0.00 0.00
9:15 am 09:15 undefined 72 22 60 15.7 68 68 SSE 5 7 29.93 1014 10 16 0.00 0.00
9:35 am 09:35 undefined 73 22.8 61 15.9 65 65 S 5 7 29.93 1013 10 16 0.00 0.00
9:55 am 09:55 undefined 74 23.6 61 16.2 63 63 SSW 5 7 29.92 1013 10 16 0.00 0.00
10:15 am 10:15 undefined 75 24 61 16.2 62 62 SSE 3 6 29.92 1013 10 16 0.00 0.00
10:35 am 10:35 undefined 76 24.7 61 16.2 59 59 Calm 29.92 1013 10 16 0.00 0.00
10:55 am 10:55 undefined 78 25.6 62 16.6 58 58 Calm 29.91 1013 10 16 0.00 0.00
11:15 am 11:15 undefined 79 26.3 62 16.9 56 56 Calm 29.92 1013 10 16 0.00 0.00
11:35 am 11:35 undefined 80 26.9 63 17.3 56 56 W 3 6 29.90 1013 10 16 0.00 0.00
11:55 am 11:55 undefined 81 27.4 62 16.4 51 51 WSW 3 6 29.90 1013 10 16 0.00 0.00
12:15 pm 12:15 undefined 82 27.7 61 15.9 49 49 NW 3 6 29.90 1013 10 16 0.00 0.00
12:35 pm 12:35 undefined 81 27 58 14.5 46 46 Calm 29.90 1013 10 16 0.00 0.00
12:55 pm 12:55 undefined 83 28.1 59 14.8 44 44 S 3 6 29.89 1012 10 16 0.00 0.00
1:15 pm 13:15 Partly Cloudy with Light Rain 83 28.1 59 15.2 45 45 SSE 9 15 29.88 1012 10 16 0.00 0.00
1:35 pm 13:35 Partly Cloudy with Thunderstorms 81 27.4 58 14.4 45 45 Calm 29.88 1012 10 16 0.00 0.00
1:55 pm 13:55 undefined 74 23.1 64 17.5 71 71 SW 12 19 29.89 1012 7 11 0.02 0.51
2:15 pm 14:15 Partly Cloudy with Strong Thunderstorms 68 20.2 57 14 68 68 W 10 17 29.91 1013 4 6 0.08 2.03
2:35 pm 14:35 Partly Cloudy with Strong Thunderstorms 66 19 60 15.5 80 80 NE 9 15 29.92 1013 2 3 0.35 8.89
2:55 pm 14:55 Partly Cloudy with Thunderstorms 68 19.8 61 16.1 79 79 E 13 20 29.91 1013 7 11 0.41 10.41
3:15 pm 15:15 Partly Cloudy with Nearby Thunderstorms 69 20.7 60 15.3 71 71 E 9 15 29.87 1012 10 16 0.00 0.00
3:35 pm 15:35 Partly Cloudy with Nearby Thunderstorms 69 20.7 57 14 66 66 W 9 15 29.91 1013 10 16 0.00 0.00
3:55 pm 15:55 Partly Cloudy with Thunderstorms 67 19.5 59 14.9 75 75 S 9 15 29.89 1012 10 16 0.03 0.76
4:15 pm 16:15 undefined 68 20 60 15.7 76 76 NNW 16 26 29.93 1013 10 16 0.00 0.00
4:35 pm 16:35 undefined 67 19.7 59 15.1 75 75 NW 12 19 29.95 1014 10 16 0.00 0.00
4:55 pm 16:55 Partly Cloudy with Nearby Thunderstorms 65 18.2 59 14.9 81 81 NW 7 11 29.96 1015 5 8 0.02 0.51
5:15 pm 17:15 Partly Cloudy with Rain 64 17.8 60 15.6 87 87 Calm 29.93 1014 4 6 0.04 1.02
5:35 pm 17:35 Partly Cloudy with Light Rain 64 17.6 60 15.4 87 87 Calm 29.90 1013 7 11 0.08 2.03
5:55 pm 17:55 Partly Cloudy with Light Rain 63 17.4 60 15.8 90 90 S 8 13 29.89 1012 10 16 0.09 2.29
6:15 pm 18:15 Partly Cloudy with Light Rain 64 17.8 59 15 84 84 Calm 29.88 1012 10 16 0.00 0.00
6:35 pm 18:35 undefined 63 17.4 59 14.9 85 85 Calm 29.88 1012 10 16 0.00 0.00
6:55 pm 18:55 undefined 63 17 60 15.5 91 91 W 3 6 29.89 1012 10 16 0.00 0.00
7:15 pm 19:15 Partly Cloudy with Nearby Thunderstorms 63 17.2 60 15.8 92 92 Calm 29.89 1012 10 16 0.00 0.00
7:35 pm 19:35 undefined 63 17.2 61 16 93 93 Calm 29.89 1012 10 16 0.00 0.00
7:55 pm 19:55 undefined 63 17.3 60 15.7 90 90 Calm 29.89 1012 10 16 0.00 0.00
8:15 pm 20:15 undefined 63 17.4 60 15.7 90 90 Calm 29.90 1012 10 16 0.00 0.00
8:35 pm 20:35 undefined 63 17.3 60 15.3 88 88 Calm 29.91 1013 10 16 0.00 0.00
8:55 pm 20:55 undefined 63 17.3 60 15.5 89 89 Calm 29.92 1013 10 16 0.00 0.00
9:15 pm 21:15 undefined 62 16.7 60 15.7 94 94 Calm 29.92 1013 10 16 0.00 0.00
9:35 pm 21:35 undefined 61 16.2 60 15.6 96 96 Calm 29.93 1014 10 16 0.00 0.00
9:55 pm 21:55 undefined 61 16.2 60 15.6 96 96 Calm 29.93 1014 10 16 0.00 0.00
10:15 pm 22:15 undefined 61 16.1 60 15.5 96 96 Calm 29.94 1014 10 16 0.00 0.00
10:35 pm 22:35 undefined 61 15.9 60 15.5 97 97 E 8 13 29.95 1014 10 16 0.00 0.00
10:55 pm 22:55 undefined 62 16.5 59 15.1 92 92 E 5 7 29.96 1014 10 16 0.00 0.00
11:15 pm 23:15 undefined 61 16.2 59 15.1 93 93 Calm 29.96 1015 10 16 0.00 0.00
11:35 pm 23:35 undefined 60 15.6 59 14.8 95 95 Calm 29.96 1015 10 16 0.00 0.00
11:55 pm 23:55 undefined 60 15.6 59 14.8 95 95 Calm 29.96 1015 10 16 0.00 0.00

Powered by AerisWeather